When you browse on this site, cookies collect data to enhance your experience and personalize the content and advertising you see.
Visit our Privacy Policy to learn more. By continuing to use the site, you agree to this use of cookies and data.

Hourly Weather Potemkino

Today, 5 August, Wednesday

Time Temperature Precipitation Wind Pressure Humidity
00:00 +16°C° 0 mm 2 mps 751 mmHg 81%
01:00 +15°C° 0 mm 2 mps 751 mmHg 82%
02:00 +15°C° 0 mm 2 mps 751 mmHg 85%
03:00 +16°C° 0 mm 2 mps 751 mmHg 85%
04:00 +16°C° 0 mm 1 mps 751 mmHg 85%
05:00 +16°C° 0 mm 1 mps 751 mmHg 86%
06:00 +18°C° 0 mm 2 mps 751 mmHg 81%
07:00 +19°C° 0 mm 2 mps 751 mmHg 75%
08:00 +21°C° 0 mm 2 mps 752 mmHg 70%
09:00 +23°C° 0 mm 2 mps 751 mmHg 66%
10:00 +24°C° 0 mm 2 mps 751 mmHg 62%
11:00 +25°C° 0 mm 2 mps 751 mmHg 58%
12:00 +26°C° 0 mm 1 mps 751 mmHg 56%
13:00 +26°C° 0 mm 1 mps 751 mmHg 54%
14:00 +27°C° 0 mm 1 mps 751 mmHg 53%
15:00 +27°C° 0 mm 1 mps 751 mmHg 55%
16:00 +25°C° 0 mm 0 mps 751 mmHg 57%
17:00 +24°C° 0 mm 0 mps 751 mmHg 59%
18:00 +22°C° 0 mm 0 mps 751 mmHg 65%
19:00 +20°C° 0 mm 0 mps 751 mmHg 70%
20:00 +18°C° 0 mm 0 mps 751 mmHg 75%
21:00 +18°C° 0 mm 0 mps 751 mmHg 77%
22:00 +17°C° 0 mm 0 mps 751 mmHg 79%
23:00 +17°C° 0 mm 0 mps 751 mmHg 81%

Tomorrow, 6 August, Thursday

Time Temperature Precipitation Wind Pressure Humidity
00:00 +17°C° 0 mm 0 mps 752 mmHg 82%
01:00 +16°C° 0 mm 0 mps 752 mmHg 83%
02:00 +16°C° 0 mm 0 mps 752 mmHg 84%
03:00 +16°C° 0 mm 0 mps 752 mmHg 83%
04:00 +16°C° 0 mm 0 mps 752 mmHg 83%
05:00 +17°C° 0 mm 0 mps 752 mmHg 83%
06:00 +18°C° 0 mm 0 mps 752 mmHg 78%
07:00 +22°C° 0 mm 1 mps 752 mmHg 73%
08:00 +24°C° 0 mm 1 mps 752 mmHg 68%
09:00 +25°C° 0 mm 1 mps 752 mmHg 65%
10:00 +26°C° 0 mm 1 mps 752 mmHg 61%
11:00 +27°C° 0 mm 2 mps 752 mmHg 58%
12:00 +27°C° 0 mm 2 mps 752 mmHg 58%
13:00 +28°C° 0 mm 2 mps 752 mmHg 57%
14:00 +28°C° 0 mm 2 mps 752 mmHg 57%
15:00 +28°C° 0.1 mm 2 mps 752 mmHg 61%
16:00 +27°C° 0.1 mm 2 mps 752 mmHg 64%
17:00 +27°C° 0.1 mm 2 mps 751 mmHg 67%
18:00 +25°C° 0.2 mm 2 mps 752 mmHg 74%
19:00 +24°C° 0.2 mm 2 mps 752 mmHg 80%
20:00 +21°C° 0.2 mm 3 mps 752 mmHg 87%
21:00 +20°C° 0 mm 3 mps 752 mmHg 89%
22:00 +20°C° 0 mm 3 mps 752 mmHg 92%
23:00 +19°C° 0 mm 3 mps 752 mmHg 94%

Day after tomorrow, 7 August, Friday

Time Temperature Precipitation Wind Pressure Humidity
00:00 +18°C° 0 mm 3 mps 752 mmHg 93%
01:00 +17°C° 0 mm 3 mps 752 mmHg 92%
02:00 +16°C° 0 mm 3 mps 752 mmHg 91%
03:00 +16°C° 0 mm 3 mps 753 mmHg 91%
04:00 +16°C° 0 mm 3 mps 753 mmHg 92%
05:00 +15°C° 0 mm 4 mps 753 mmHg 93%
06:00 +17°C° 0 mm 4 mps 753 mmHg 87%
07:00 +19°C° 0 mm 5 mps 753 mmHg 81%
08:00 +20°C° 0 mm 5 mps 753 mmHg 75%
09:00 +21°C° 0 mm 5 mps 754 mmHg 69%
10:00 +22°C° 0 mm 5 mps 754 mmHg 64%
11:00 +23°C° 0 mm 6 mps 754 mmHg 58%
12:00 +23°C° 0 mm 5 mps 754 mmHg 58%
13:00 +25°C° 0 mm 5 mps 754 mmHg 57%
14:00 +25°C° 0 mm 5 mps 753 mmHg 57%
15:00 +23°C° 0 mm 5 mps 753 mmHg 60%
16:00 +23°C° 0 mm 4 mps 753 mmHg 63%
17:00 +23°C° 0 mm 4 mps 753 mmHg 67%
18:00 +21°C° 0 mm 3 mps 753 mmHg 70%
19:00 +20°C° 0 mm 3 mps 753 mmHg 73%
20:00 +18°C° 0 mm 3 mps 753 mmHg 77%
21:00 +17°C° 0 mm 3 mps 754 mmHg 78%
22:00 +17°C° 0 mm 3 mps 754 mmHg 79%
23:00 +16°C° 0 mm 3 mps 754 mmHg 80%

8 August, Saturday

Time Temperature Precipitation Wind Pressure Humidity
00:00 +16°C° 0 mm 3 mps 754 mmHg 82%
01:00 +14°C° 0 mm 3 mps 754 mmHg 85%
02:00 +15°C° 0 mm 2 mps 754 mmHg 87%
03:00 +15°C° 0 mm 2 mps 754 mmHg 87%
04:00 +14°C° 0 mm 2 mps 754 mmHg 88%
05:00 +14°C° 0 mm 2 mps 754 mmHg 88%
06:00 +16°C° 0 mm 3 mps 754 mmHg 83%
07:00 +18°C° 0 mm 3 mps 754 mmHg 78%
08:00 +20°C° 0 mm 3 mps 754 mmHg 72%
09:00 +21°C° 0 mm 3 mps 753 mmHg 66%
10:00 +22°C° 0 mm 3 mps 753 mmHg 61%
11:00 +24°C° 0 mm 3 mps 753 mmHg 55%
12:00 +24°C° 0 mm 3 mps 753 mmHg 54%
13:00 +25°C° 0 mm 3 mps 752 mmHg 53%
14:00 +25°C° 0 mm 3 mps 752 mmHg 52%
15:00 +25°C° 0 mm 3 mps 752 mmHg 55%
16:00 +24°C° 0 mm 2 mps 751 mmHg 59%
17:00 +24°C° 0 mm 2 mps 751 mmHg 63%
18:00 +21°C° 0 mm 2 mps 751 mmHg 67%
19:00 +20°C° 0 mm 1 mps 751 mmHg 71%
20:00 +18°C° 0 mm 1 mps 751 mmHg 75%
21:00 +18°C° 0 mm 1 mps 751 mmHg 76%
22:00 +18°C° 0 mm 1 mps 751 mmHg 77%
23:00 +16°C° 0 mm 1 mps 751 mmHg 78%

9 August, Sunday

Time Temperature Precipitation Wind Pressure Humidity
00:00 +16°C° 0 mm 2 mps 750 mmHg 80%
01:00 +15°C° 0 mm 2 mps 750 mmHg 82%
02:00 +15°C° 0 mm 2 mps 750 mmHg 83%
03:00 +15°C° 0 mm 2 mps 750 mmHg 84%
04:00 +15°C° 0 mm 2 mps 750 mmHg 85%
05:00 +15°C° 0 mm 2 mps 749 mmHg 86%
06:00 +17°C° 0 mm 2 mps 749 mmHg 82%
07:00 +18°C° 0 mm 3 mps 749 mmHg 79%
08:00 +20°C° 0 mm 3 mps 749 mmHg 75%
09:00 +21°C° 0 mm 3 mps 749 mmHg 70%
10:00 +24°C° 0 mm 3 mps 749 mmHg 66%
11:00 +25°C° 0 mm 3 mps 749 mmHg 61%
12:00 +25°C° 0 mm 3 mps 748 mmHg 59%
13:00 +26°C° 0 mm 3 mps 748 mmHg 58%
14:00 +26°C° 0 mm 3 mps 748 mmHg 56%
15:00 +25°C° 0.1 mm 3 mps 748 mmHg 60%
16:00 +25°C° 0.1 mm 3 mps 747 mmHg 65%
17:00 +24°C° 0.1 mm 3 mps 747 mmHg 69%
18:00 +22°C° 0 mm 3 mps 747 mmHg 74%
19:00 +20°C° 0 mm 2 mps 747 mmHg 79%
20:00 +18°C° 0 mm 2 mps 748 mmHg 84%
21:00 +18°C° 0 mm 2 mps 748 mmHg 86%
22:00 +17°C° 0 mm 3 mps 748 mmHg 88%
23:00 +16°C° 0 mm 3 mps 748 mmHg 90%

10 August, Monday

Time Temperature Precipitation Wind Pressure Humidity
00:00 +16°C° 0 mm 3 mps 748 mmHg 90%
01:00 +14°C° 0 mm 3 mps 748 mmHg 90%
02:00 +15°C° 0 mm 2 mps 748 mmHg 91%
03:00 +13°C° 0 mm 3 mps 748 mmHg 91%
04:00 +13°C° 0 mm 3 mps 748 mmHg 91%
05:00 +13°C° 0 mm 3 mps 749 mmHg 91%
06:00 +14°C° 0 mm 3 mps 749 mmHg 84%
07:00 +15°C° 0 mm 4 mps 749 mmHg 78%
08:00 +17°C° 0 mm 5 mps 749 mmHg 71%
09:00 +19°C° 0 mm 5 mps 749 mmHg 68%
10:00 +20°C° 0 mm 5 mps 749 mmHg 64%
11:00 +20°C° 0 mm 5 mps 749 mmHg 61%
12:00 +21°C° 0 mm 5 mps 749 mmHg 60%
13:00 +21°C° 0 mm 5 mps 749 mmHg 58%
14:00 +22°C° 0 mm 5 mps 749 mmHg 56%
15:00 +21°C° 0 mm 4 mps 749 mmHg 58%
16:00 +21°C° 0 mm 4 mps 749 mmHg 60%
17:00 +21°C° 0 mm 3 mps 749 mmHg 63%
18:00 +19°C° 0 mm 3 mps 749 mmHg 66%
19:00 +18°C° 0 mm 2 mps 749 mmHg 70%
20:00 +16°C° 0 mm 1 mps 749 mmHg 74%
21:00 +16°C° 0 mm 1 mps 749 mmHg 75%
22:00 +15°C° 0 mm 1 mps 749 mmHg 77%
23:00 +15°C° 0 mm 1 mps 749 mmHg 79%
Show more